User: anonymous
Location: Cape Cod Imaging Station
(41.7417°N, 70.1583°W)
Time: 05:07:04
(UTC-04:00)
Language:

Cosmos 1508 Rocket - Orbit

View from above orbital plane
View from above orbital plane
View from above satellite
View from above satellite

Ground track
Ground track

The orbit data is extracted from the following two-line orbital elements,

1 14484U 83111B   14109.22095469  .00053914  00000-0  88449-3 0  4945
2 14484 082.8444 026.0159 0232681 124.5531 027.1992 15.27277019563543
Epoch (UTC): 19 April 2014 05:18:10
Eccentricity: 0.0232681
inclination: 82.8444°
perigee height: 324 km
apogee height: 643 km
right ascension of ascending node: 26.0159°
argument of perigee: 124.5531°
revolutions per day: 15.27277019
mean anomaly at epoch: 27.1992°
orbit number at epoch: 56354

The dashed part of the orbit path shows where the satellite is in the earth's shadow,  

DLR